Location: Newark
(50.0306°N, 2.3272°E)
Time: 06:21:21
(UTC+00:00)

A-11 Canister half - Pass Details

Date: 10 December 2019
Orbit: 1525 x 1684 km, 47.3° (Epoch: 28 January)

Event Time Altitude Azimuth Distance (km) Brightness Sun altitude
Rises 05:00:15 0° 206° (SSW) 4,898 11.5 -24.1°
Reaches altitude 10° 05:03:46 10° 198° (SSW) 3,925 11.0 -23.5°
Maximum altitude 05:12:26 34° 138° (SE) 2,516 10.5 -22.2°
Drops below altitude 10° 05:21:07 10° 79° (E) 3,941 12.1 -20.8°
Sets 05:24:38 0° 71° (ENE) 4,919 12.6 -20.2°
